Location: Arborea
(39.7744°N, 8.5819°E)
Time: 03:31:21
(UTC+00:00)

USA 229 - Pass Details

Date: 03 June 2022
Orbit: 938 x 1274 km, 63.4° (Epoch: 24 May)

Event Time Altitude Azimuth Distance (km) Brightness Sun altitude
Rises 22:01:43 0° 326° (NNW) 3,994 8.0 -24.9°
Reaches altitude 10° 22:04:22 10° 328° (NNW) 3,076 7.1 -25.1°
Maximum altitude 22:11:50 78° 55° (NE) 1,252 4.0 -25.6°
Enters shadow 22:14:27 46° 132° (SE) 1,611 4.2 -25.7°
